CAPE
1551 1748 716 768 792 774 722 504 454 1006 1048 1125 1586 1894 1911 1981 1990 1939 1984 2058 1932 1555 1553 1468 1687 1117 1740 1579 1759 1618 1499 1411 1294 1243 1074 830 804 877 928 944 723 777 846 954 821 836 986 963 763 679 1335 1236 1733 2001 1752 1519 803 606 471 562 782 666
1028 1240 1098 406 758 867 563 715 856 861 1081 1282 1306 1501 1612 1472 1501 1246 1400 1416 1102 1940 1394 1243 1319 1336 1423 1632 1548 1585 1518 1499 1316 1249 1116 1013 990 911 944 875 887 640 722 942 809 254 214 942 896 781 692 1499 1842 1594 1504 1310 1005 820 701 923 834 943
982 559 338 710 1216 804 550 706 692 960 1203 1122 980 1151 1394 1417 1149 927 962 891 1015 1106 1401 1047 1208 1038 674 1360 1461 1582 1549 1403 1428 1329 1227 1164 1122 1180 1145 1108 940 1013 792 674 591 358 190 171 420 961 979 1308 1481 1074 1307 1069 1055 807 628 802 561 1134
987 804 1205 930 1076 1617 1189 1086 628 869 1150 2021 1601 1362 1228 999 860 665 1004 948 872 883 842 891 841 737 787 1129 1549 1514 1552 1474 1372 1432 1258 1290 1318 1312 1168 1153 1199 926 796 345 424 684 255 340 338 482 846 1070 721 1523 1601 1130 696 1000 634 844 684 1127
570 894 1242 1026 632 953 881 879 827 1361 1286 1302 1094 1240 1322 1228 1194 1020 891 883 692 831 746 939 818 895 634 1119 1035 920 1267 1324 1381 1262 1438 1044 999 1111 1077 591 412 680 371 456 553 495 390 341 649 554 850 1116 1326 1380 1393 1040 1132 962 606 831 764 1196
1233 1187 1137 1224 1102 1135 1273 1079 1136 1384 1345 1613 1536 1441 1256 1220 1016 1009 1026 1173 941 846 799 913 803 859 949 938 1044 728 714 616 984 755 1047 946 732 860 930 626 364 244 619 552 449 332 326 361 353 708 1038 1327 1467 1469 1298 1052 1197 634 1088 950 934 1268
993 1363 1424 1686 1395 1226 1392 1425 1406 1487 1483 936 1281 1280 1258 1161 1210 1093 1065 1015 1053 926 1179 1216 1258 1160 765 604 545 990 1387 1522 629 949 700 909 797 796 912 1238 1124 811 690 612 278 267 252 224 583 351 893 1044 1456 1391 1385 1180 1234 1085 1387 935 1022 1356
1586 1508 1562 1989 1984 1629 1717 1447 1508 1588 1468 964 928 971 1039 1166 1074 1119 1095 896 1392 1937 1501 1379 1048 1245 894 963 678 546 946 932 798 1068 666 783 926 699 586 1239 828 785 651 464 450 254 209 236 276 454 739 1055 1346 1277 1223 1104 1020 1114 1160 986 718 1405
1698 1467 1286 1614 1616 1708 1547 1617 1524 1522 1619 1472 1625 1633 1374 1250 1306 1190 1001 1041 1361 1464 1617 1182 1155 1104 1104 1001 699 648 863 632 542 388 468 676 357 575 986 1260 928 872 627 446 394 392 299 277 152 660 499 377 924 1008 1133 953 1067 1272 1002 1199 889 1111
1365 1410 913 1306 921 1456 1239 1119 1758 1654 1552 1720 1563 1429 1518 1424 1368 1306 1147 953 1162 1377 1755 1238 1150 903 1251 1292 958 936 1202 1307 1426 1446 1020 1119 840 847 812 754 944 783 593 475 358 395 232 224 214 332 786 710 1058 873 831 1090 817 930 533 945 1011 894
1225 1422 966 1409 1833 1761 1760 1672 1664 1396 1460 1268 1251 1276 1364 1310 1053 1455 1055 957 1384 1543 1974 1760 1417 902 1066 1058 1087 901 1291 1340 1471 1289 1470 1459 1306 739 1019 631 826 1034 300 514 454 250 304 194 226 238 538 533 666 798 915 767 997 685 706 872 1116 886
1238 1492 1589 1604 1487 1685 1458 1032 1358 1574 1544 1457 1677 1503 1352 1385 1617 1492 1395 1484 1792 1437 1481 1573 1341 1375 1180 1222 1005 1418 1244 1182 1178 1398 1294 1365 1249 858 652 899 993 766 1150 511 425 347 320 198 191 173 154 350 420 649 970 574 642 1006 1116 1482 940 783
1528 1518 1349 1368 1301 1399 1183 1293 1212 1505 1561 1688 1391 1240 1266 1501 1410 1344 1488 1323 1415 1340 962 1134 1552 1125 832 729 755 707 1159 994 1310 1440 1063 1100 912 759 804 835 804 809 861 852 268 322 119 354 338 225 188 274 296 363 310 760 819 1113 897 1411 1132 1240
1523 1438 1575 1313 1365 1093 913 838 1242 1687 1721 1600 1479 1558 1649 1562 1450 1200 1315 1390 1376 1410 1307 1324 1023 1030 834 1362 1308 1556 1384 1547 1748 1550 1368 1215 1038 1339 1010 972 612 792 707 1318 1101 422 524 431 501 291 392 218 157 289 257 270 360 547 826 950 1263 1484
1480 1336 1284 1362 1370 1338 1518 1582 1410 1469 1467 1821 1765 1679 1643 1612 1543 1319 1365 1444 1730 1501 1351 1507 1482 1468 1196 857 1160 1101 1071 1600 1676 1425 1085 1299 1036 1146 1140 889 975 828 590 703 462 422 244 568 487 224 454 509 368 374 349 335 271 1108 875 1143 1306 1202
1507 1420 1544 1508 1906 1344 1626 1424 1485 1504 1966 1992 1776 1596 1630 1504 1443 1452 1444 1502 1705 1557 1468 1576 1432 1136 1349 1210 899 944 1110 1356 1254 1851 1386 1299 1190 1087 1301 921 779 808 691 1377 482 485 1029 516 889 825 634 725 1020 658 214 559 262 518 846 1106 845 878
1588 1545 1795 1797 2065 1927 1992 1941 1907 1774 1865 1986 1576 1484 1411 1386 1314 1381 1341 1358 1696 1617 1396 1482 1486 1445 868 1180 642 774 916 1016 1225 1354 1172 1077 845 1055 904 1062 1196 847 1313 750 897 857 811 635 966 1119 1028 1377 1232 528 879 1704 876 778 1530 1201 1087 1144
1319 1736 1683 1624 1957 2388 2514 2084 1895 1790 1758 1742 1568 1250 1140 1204 1250 1223 1291 1446 1645 1647 1571 1209 1091 1342 1173 1125 719 490 898 824 683 925 843 931 972 906 1110 1387 1232 1423 1309 1095 1258 1049 878 1150 1136 1204 1420 1444 1116 918 1232 1172 1211 1088 935 949 1216 900
1817 1423 1860 2076 2427 2844 2567 2190 1871 1813 1876 1647 1413 1202 952 811 873 982 1062 2006 1755 1821 1575 1546 1440 1464 1406 992 916 716 680 685 930 1524 1365 810 1120 1222 1272 1390 1450 1416 1247 1471 1220 1116 718 1175 773 850 917 1610 1563 1614 1432 1376 1294 1363 1523 1131 798 681
1840 1623 1822 2204 2583 2585 2126 1869 1668 1523 1437 1185 1070 1059 939 884 762 724 905 1065 1195 1657 1698 1771 1565 1483 1499 1490 1278 939 1195 786 1093 1458 1516 804 848 1489 1362 1438 1383 1043 1204 928 1105 483 963 1128 870 952 1412 1383 1275 1344 1464 1376 1437 1152 968 994 1338 931
1379 1404 1390 1650 2134 1534 1628 1369 1232 1264 1141 1043 694 934 888 828 747 813 853 843 1204 1369 1396 1626 1479 1521 1302 1247 1084 1406 802 845 1156 1188 1554 1562 1579 1622 1771 1790 1356 870 1001 789 976 684 909 778 984 1002 733 1281 1277 1071 1104 1102 1446 1334 1278 1251 1184 903
1411 1273 1579 2402 1879 1707 1253 1148 1313 991 806 840 561 638 475 713 1004 1146 1145 1072 1093 1614 1407 1415 1342 1533 1663 1378 1321 1263 1253 1382 1304 1119 1580 1635 1599 1305 1278 1103 893 644 485 485 535 763 944 692 776 987 1055 800 762 802 896 915 688 834 1221 1143 1046 1396
1922 2174 1913 1819 1416 1350 1123 1003 1014 766 902 786 816 911 702 398 374 846 1229 1083 1125 1144 1129 1313 1291 1609 1753 1634 1540 1386 1146 1152 1420 983 1331 1625 1470 1719 1319 1104 691 530 629 503 479 739 969 1218 1134 826 515 586 866 412 636 883 728 1130 754 837 1198 989
2502 2279 1630 1502 1477 1638 1471 1468 1218 1081 842 900 1112 821 702 804 519 429 844 884 921 990 877 705 804 849 1444 1558 1788 1539 1360 1510 1564 1631 1052 1216 1139 1248 1100 903 666 580 669 456 466 731 1298 1870 1013 1239 678 357 405 1062 852 692 948 690 846 810 1002 1066
2047 1540 1525 1420 1819 1639 1658 1673 1292 1216 982 640 322 344 605 614 630 352 197 682 857 947 749 654 645 655 609 800 666 686 934 1221 1530 1606 1253 787 906 802 581 796 745 840 724 463 668 1281 1262 1196 1050 1257 1011 362 430 293 373 808 726 618 933 1035 648 679
1534 1201 1003 1515 1632 1490 1588 1602 1440 1101 465 294 450 542 570 333 49 330 297 89 106 406 573 646 536 533 544 527 368 154 47 197 458 935 1078 1469 1203 975 876 817 1145 1155 680 760 1290 992 1057 1239 1264 1365 1034 865 1008 486 464 798 562 547 588 931 678 713
1452 1363 1143 1072 1315 1728 1428 1413 1193 716 528 555 491 396 287 472 449 74 3 286 206 448 397 550 464 398 141 78 198 401 557 317 174 230 541 672 967 1341 901 948 1233 1003 975 1237 1317 1101 1182 1136 1216 1184 1094 1160 904 831 874 595 568 442 491 542 608 316
1374 964 776 896 1013 1887 1589 1317 1136 815 789 671 647 469 520 378 142 50 132 87 262 408 209 194 259 184 254 196 412 464 450 406 253 112 81 113 344 585 879 1238 1071 1112 1176 846 1166 694 468 900 1048 888 1052 862 728 936 956 1225 717 656 332 393 210 76
1048 692 869 868 1158 1751 1300 1320 1206 923 902 785 465 414 257 71 82 167 253 259 370 350 477 457 369 115 256 116 270 438 409 311 228 161 82 170 277 416 689 1114 890 1030 938 1188 1232 915 927 1218 996 876 844 1081 750 655 849 847 960 386 435 256 60 55
569 855 986 1058 1440 1576 1421 1471 1109 975 792 369 264 180 81 99 114 257 483 603 445 359 254 381 360 322 240 154 193 309 307 296 252 160 181 243 263 352 476 646 798 900 1213 1136 1117 1301 1222 1082 627 783 751 995 938 686 789 524 697 572 760 587 123 18
796 890 1236 1011 1125 1109 1772 1316 1108 1001 636 521 451 328 228 232 63 67 128 160 366 354 253 320 317 383 432 313 275 200 259 245 316 288 174 122 156 121 358 465 506 660 866 1145 1231 1410 1246 1226 1043 971 880 524 788 518 830 243 577 402 396 467 283 83
731 692 1238 1172 1248 1180 1722 1491 1154 1073 818 776 609 354 205 203 195 104 180 223 174 176 285 232 366 407 395 328 238 169 176 250 198 228 102 87 93 110 120 195 294 340 648 830 811 1029 1245 1175 1032 996 1004 812 644 673 693 502 340 428 329 491 210 80
1184 1443 1016 1235 954 1218 1526 1573 1218 975 980 819 480 181 168 102 101 104 162 141 36 70 79 234 301 320 220 94 69 99 191 190 68 9 11 0 7 43 107 145 232 299 314 329 465 797 1386 1442 1184 921 278 192 235 342 245 586 822 660 462 708 304 48
1301 1186 1371 1166 953 1338 1774 1671 1290 1068 995 672 358 165 88 109 76 38 36 35 94 51 127 366 276 228 58 43 130 180 113 4 0 12 51 108 43 3 0 24 81 82 131 200 323 406 441 326 203 103 58 12 4 1 0 1 13 23 30 24 6 0
1915 1807 1575 1517 1781 1927 1502 1299 1325 1238 940 846 400 135 76 138 159 55 7 26 19 60 285 216 159 54 0 0 0 0 0 0 36 37 12 0 0 0 0 0 0 1 7 39 94 208 268 252 132 0 0 0 0 0 0 0 0 0 0 0 0 0
1516 1855 2128 2091 2147 2022 1735 1365 1451 1420 1031 1026 445 205 148 176 223 111 52 84 72 98 166 165 52 0 0 0 0 0 0 0 0 2 0 0 0 0 0 0 0 0 0 0 0 0 2 0 0 0 0 0 0 0 0 0 0 0 0 0 0 0
1305 1886 2189 2239 2165 1433 1660 1563 1386 1366 1184 1042 648 382 361 404 239 161 104 73 45 65 166 52 0 0 0 0 0 0 0 0 0 0 0 0 0 0 0 0 0 0 0 0 0 0 0 0 0 0 0 0 0 0 0 0 0 0 0 0 0 0
Wind_Speed
26 28 28 26 25 28 29 34 30 26 31 28 26 26 28 30 33 37 41 41 37 35 33 31 29 26 26 23 24 28 27 29 29 29 28 26 24 23 22 22 20 18 16 17 15 16 17 18 18 16 18 16 14 14 16 19 20 21 20 21 24 25
25 24 26 25 22 24 27 26 25 22 26 25 24 26 23 24 28 30 34 35 31 26 27 25 22 23 19 24 25 27 28 29 29 29 27 25 24 23 22 21 19 17 15 14 15 16 17 17 19 18 17 17 16 18 18 19 18 23 25 24 24 27
27 23 31 25 26 26 29 23 21 23 23 24 25 23 22 24 26 28 29 30 27 20 23 22 17 18 21 22 26 26 27 29 29 28 26 25 23 23 22 20 17 14 12 11 12 13 20 21 20 20 19 17 17 19 20 21 20 24 27 24 25 30
27 29 26 24 25 25 24 23 24 25 25 25 23 23 26 27 26 27 26 23 20 13 20 16 17 20 15 23 26 25 25 26 26 26 26 23 23 22 21 19 15 10 10 12 12 12 18 20 23 20 19 18 20 20 21 21 20 26 24 25 27 30
27 22 28 25 23 23 27 27 25 24 24 24 24 24 24 22 21 22 21 17 13 14 9 12 14 19 17 21 24 23 22 20 20 20 23 20 20 21 19 18 16 11 11 11 12 15 16 21 22 20 19 20 20 22 19 21 20 26 26 27 28 28
28 29 32 29 26 29 31 30 27 25 25 25 26 25 21 17 18 17 13 11 14 18 13 16 18 20 22 24 24 18 18 17 15 18 18 17 18 20 18 17 14 13 10 12 14 15 15 19 20 19 20 19 20 20 19 20 23 30 26 26 27 29
31 32 33 33 31 29 29 30 27 26 28 28 23 19 13 12 11 9 9 12 15 17 17 17 18 19 21 21 21 13 11 13 8 13 17 14 17 18 17 15 11 10 11 13 12 14 15 16 17 19 20 21 18 20 19 21 24 27 25 25 27 29
32 34 33 33 33 31 31 30 27 26 26 24 19 15 13 12 12 12 12 12 15 16 17 17 17 18 18 20 20 16 8 4 7 10 11 17 13 15 18 16 17 13 13 14 13 14 14 17 16 17 19 21 19 19 20 19 21 27 25 26 26 28
34 34 33 33 34 30 29 28 26 23 22 20 19 18 16 16 16 15 15 14 16 15 17 18 17 18 17 19 19 17 14 11 10 5 7 17 15 17 16 17 17 14 13 16 15 13 14 16 16 16 18 20 16 19 18 18 20 22 26 25 26 28
31 30 31 30 28 27 26 27 26 22 20 19 20 18 16 18 17 17 19 13 12 15 16 18 18 17 17 19 16 17 14 14 13 10 16 16 21 19 22 16 8 11 14 13 16 15 13 15 15 16 17 19 16 18 18 18 21 20 28 25 27 28
27 27 26 26 24 26 26 26 24 21 19 20 21 19 18 20 19 18 19 16 14 14 16 18 18 16 16 16 15 14 13 13 14 16 15 14 19 19 17 13 15 7 11 12 16 16 12 16 16 17 16 18 17 17 19 18 18 20 26 27 27 27
26 23 24 24 23 22 24 21 17 17 19 21 19 16 16 17 16 15 15 15 16 15 16 16 15 15 15 14 12 12 12 12 12 14 14 14 15 17 14 11 12 15 8 12 14 15 12 15 15 17 17 15 17 16 16 19 16 21 29 27 28 28
24 23 22 20 19 18 19 18 17 17 21 20 16 14 16 16 14 13 14 13 12 14 15 15 14 13 13 14 13 12 9 11 13 12 11 12 13 13 13 13 15 12 10 8 10 11 10 13 13 16 14 19 14 16 16 18 18 20 29 29 29 29
23 22 21 18 16 17 17 20 18 19 20 17 15 16 18 18 16 13 11 13 12 13 13 12 12 11 9 10 10 12 11 10 12 13 12 12 12 13 11 15 15 12 10 13 13 8 10 13 14 15 13 18 16 14 20 19 19 25 29 30 26 27
21 21 20 18 16 18 20 23 20 18 18 16 17 17 17 17 16 13 11 10 11 12 11 10 8 7 8 11 8 11 9 9 11 13 12 13 13 12 10 13 10 5 6 9 11 4 10 12 12 14 14 13 17 18 16 24 22 26 30 31 27 29
21 21 19 18 18 19 19 19 18 17 17 17 16 15 14 14 13 13 10 9 10 9 9 8 6 6 5 5 12 11 9 9 13 12 12 12 10 9 9 10 4 5 5 7 10 9 12 11 9 15 14 14 17 16 18 22 25 31 22 28 29 29
20 20 20 18 19 20 18 19 17 17 16 16 15 14 13 13 14 13 10 9 10 9 6 6 5 4 4 10 8 14 10 15 13 11 11 8 7 9 9 8 5 5 7 10 8 10 12 7 10 13 14 15 16 16 19 20 27 22 24 27 29 29
20 18 18 18 19 19 18 19 17 16 16 16 15 14 13 13 14 13 11 10 10 10 6 6 5 6 3 8 11 13 16 15 12 13 13 11 11 9 7 6 6 7 9 8 7 10 13 7 11 10 13 14 15 14 16 18 25 22 23 25 23 26
21 18 14 16 19 19 19 18 18 17 18 17 15 13 13 13 14 12 10 10 10 9 7 8 7 8 6 10 8 14 22 21 14 14 15 13 9 9 10 8 7 7 8 8 8 8 9 7 10 9 11 14 14 15 16 18 20 21 21 22 25 25
20 18 16 14 16 17 17 18 19 19 17 15 13 14 13 14 13 12 12 11 9 8 9 8 9 9 9 8 14 13 22 20 18 15 15 15 10 10 11 10 8 8 7 10 9 6 4 7 14 10 11 14 14 15 17 17 17 19 17 23 22 23
22 19 14 13 14 14 16 19 19 17 16 13 13 14 14 14 13 14 12 12 11 9 10 10 9 10 10 11 13 18 21 19 16 16 14 15 13 12 11 11 11 10 7 9 8 3 4 7 14 16 13 12 16 15 16 14 16 15 16 19 20 21
23 17 16 15 16 15 16 18 16 16 15 14 15 14 14 15 14 14 12 12 11 11 11 10 9 10 12 13 18 16 20 20 19 17 15 15 14 14 12 12 12 11 9 9 9 8 7 16 12 15 16 14 14 13 14 16 14 12 13 14 15 17
20 21 20 18 15 16 16 18 15 17 15 16 15 14 15 15 13 14 13 12 11 11 11 10 11 11 12 14 16 18 18 19 18 19 16 16 15 15 14 12 12 12 11 10 7 7 8 11 14 17 18 14 11 13 13 14 14 13 17 9 12 16
22 25 26 17 15 18 19 18 19 16 16 17 17 17 16 14 15 14 14 14 14 12 12 11 11 12 13 15 16 16 17 18 19 17 17 18 16 16 15 11 10 10 12 11 8 9 11 14 15 18 18 14 11 12 16 12 15 17 17 12 15 16
25 26 27 18 17 19 21 18 17 17 18 20 18 17 16 15 15 16 15 15 15 13 12 12 11 12 14 15 15 15 15 16 17 17 17 17 18 19 17 9 12 11 13 10 11 14 13 14 14 20 18 15 13 17 12 15 18 16 15 14 18 17
26 25 26 19 19 19 20 17 15 14 15 15 17 16 16 17 nan 15 17 nan 16 14 14 13 12 12 13 14 15 14 nan 14 15 16 15 15 17 18 24 19 16 13 12 10 10 14 14 16 14 15 19 18 17 19 19 19 18 19 17 15 16 19
25 24 27 26 19 20 17 15 12 12 13 15 17 17 17 16 17 nan nan 16 16 14 14 13 13 12 12 nan 15 15 15 14 16 15 16 15 16 16 17 20 16 16 13 12 12 12 12 15 15 15 15 18 21 20 22 23 21 23 23 17 17 19
24 27 27 22 13 15 13 13 11 12 13 15 17 18 17 17 17 nan 16 nan 13 12 12 14 12 13 12 13 13 14 15 16 14 16 nan 16 16 16 16 18 20 17 15 15 16 14 11 11 13 18 16 18 18 21 25 18 22 22 24 24 23 nan
27 29 26 13 9 12 13 13 12 12 14 16 18 17 17 nan nan 15 14 12 12 13 14 14 15 14 14 15 13 14 14 16 16 17 nan 18 18 19 20 20 19 18 17 17 16 16 15 16 16 14 21 17 20 22 25 20 20 23 22 23 nan nan
28 21 22 17 13 12 14 14 13 15 17 18 18 18 nan nan 16 14 14 13 14 13 14 14 14 16 15 16 17 15 16 16 17 18 19 20 21 22 22 22 21 19 19 18 16 16 16 18 20 13 16 21 18 22 23 24 22 22 21 19 24 nan
17 17 22 20 14 6 15 14 17 18 19 19 20 19 19 17 nan nan 16 16 15 16 16 17 17 17 17 19 19 18 18 17 18 19 20 21 21 22 22 22 22 22 21 19 18 18 17 18 19 18 17 20 19 20 24 21 24 24 21 19 19 nan
21 23 24 23 23 13 14 16 20 20 20 20 20 18 18 17 16 18 19 19 19 19 19 19 19 20 20 20 20 20 19 19 20 21 21 nan nan 24 23 23 23 23 22 21 20 19 19 19 19 18 18 20 20 20 21 25 23 25 23 21 22 nan
27 26 27 26 22 20 15 20 21 21 21 21 20 19 18 18 18 19 19 20 nan nan nan 21 22 23 23 nan nan nan 20 20 nan nan nan nan nan nan 24 24 24 25 24 23 21 21 20 19 18 19 18 19 20 22 20 22 23 22 28 20 22 nan
29 26 27 26 26 24 23 24 20 20 22 22 20 19 nan 19 nan nan nan nan nan nan 22 23 24 24 nan nan 21 22 22 nan nan nan nan 26 nan nan nan nan nan nan 25 24 23 23 22 21 19 19 nan nan nan nan nan nan nan nan nan nan nan nan
33 27 27 29 28 29 29 27 23 21 22 22 21 20 nan 21 21 nan nan nan nan nan 20 20 21 nan nan nan nan nan nan nan nan nan nan nan nan nan nan nan nan nan nan nan nan 22 20 20 19 nan nan nan nan nan nan nan nan nan nan nan nan nan
29 30 30 30 29 30 29 28 26 22 22 24 24 22 23 23 22 22 nan nan nan nan 18 18 nan nan nan nan nan nan nan nan nan nan nan nan nan nan nan nan nan nan nan nan nan nan nan nan nan nan nan nan nan nan nan nan nan nan nan nan nan nan
31 32 33 32 31 30 28 28 27 24 23 25 26 25 25 25 25 23 20 nan nan nan 19 nan nan nan nan nan nan nan nan nan nan nan nan nan nan nan nan nan nan nan nan nan nan nan nan nan nan nan nan nan nan nan nan nan nan nan nan nan nan nan
Wind_Direction
299 298 298 289 286 274 278 284 275 262 276 270 269 272 270 271 273 272 272 270 265 262 263 270 279 281 285 284 282 287 293 294 294 295 293 292 289 287 284 280 278 277 278 277 276 266 260 259 254 240 243 250 249 246 249 252 259 261 264 265 265 270
303 298 287 273 262 273 280 285 272 275 277 276 274 281 276 271 269 270 268 261 251 246 266 273 274 278 280 283 286 290 291 293 294 296 296 295 292 293 290 285 281 283 282 287 287 275 270 267 262 252 247 243 247 251 247 255 257 260 265 262 265 273
296 291 270 265 268 275 277 276 275 275 274 274 277 277 268 265 264 261 254 249 243 238 246 238 246 261 264 280 280 286 287 291 294 296 298 297 296 294 290 287 284 282 287 286 271 267 269 262 259 268 252 247 249 249 257 257 252 258 254 258 260 271
285 268 271 276 266 266 274 277 279 277 273 268 267 260 260 267 267 268 266 250 249 240 231 219 236 254 269 277 279 283 286 291 297 299 299 295 295 292 290 289 285 286 273 266 266 261 264 267 263 258 257 256 254 253 258 257 258 259 265 267 267 275
276 279 274 267 269 270 275 273 277 276 270 266 265 265 272 280 268 262 260 249 242 251 259 273 280 283 278 275 281 281 283 284 286 291 299 293 289 284 285 281 279 274 266 267 260 252 245 258 262 262 261 259 260 262 259 260 258 265 264 261 269 274
279 280 279 275 273 274 276 272 276 271 269 272 273 274 271 262 255 245 249 271 273 269 273 287 292 294 280 274 265 260 281 282 286 289 296 288 286 282 282 279 278 276 260 256 252 253 255 257 265 265 266 261 264 268 266 264 261 259 265 266 272 275
279 282 284 284 280 271 266 269 272 271 273 270 267 273 268 262 259 250 261 276 284 287 289 294 298 290 290 288 286 275 261 266 288 290 294 287 287 291 284 271 262 277 274 262 264 261 260 259 260 271 268 272 268 269 263 263 264 271 268 267 271 274
280 282 281 282 276 270 268 270 268 272 271 273 275 278 268 268 261 257 267 277 274 275 286 292 293 289 294 298 289 280 270 247 296 288 293 289 290 287 287 291 285 282 272 270 262 260 262 268 263 266 272 272 270 269 269 268 272 272 274 269 271 273
273 279 281 277 273 273 271 270 269 270 272 274 274 279 285 280 271 276 277 269 275 280 287 288 285 284 289 285 281 283 286 291 285 250 304 292 276 275 266 247 256 266 267 268 263 258 259 267 268 267 272 272 276 279 277 276 274 278 275 271 271 273
272 276 278 277 278 281 279 275 270 270 271 271 273 281 287 284 287 291 284 280 293 292 289 284 282 282 280 288 293 285 292 297 281 268 254 249 250 238 240 233 235 253 268 269 270 265 263 265 271 268 269 277 280 279 277 280 279 281 279 275 272 275
274 271 274 277 278 278 275 265 262 267 269 268 275 291 286 282 289 290 292 311 312 301 289 281 282 286 281 289 291 288 287 281 273 263 256 253 253 257 245 219 203 210 263 265 267 269 266 269 271 274 274 273 279 272 277 275 281 279 278 276 276 276
274 268 265 272 277 274 271 269 264 261 267 271 281 286 287 284 284 288 288 293 299 294 286 282 284 287 284 282 285 285 282 281 273 263 264 256 258 247 242 223 197 179 228 250 266 267 252 270 276 276 278 284 273 280 276 277 276 277 270 275 268 269
278 270 271 275 273 269 264 270 273 272 272 272 276 286 290 291 289 291 295 293 290 290 290 291 294 301 297 295 296 291 286 285 275 269 265 255 241 240 225 230 209 199 198 250 263 264 275 268 273 275 281 277 280 274 276 268 265 274 273 267 267 262
282 276 272 270 269 267 273 278 279 276 275 277 281 290 292 294 300 304 302 292 284 280 285 292 301 303 299 287 292 288 287 283 281 282 276 256 250 243 240 240 237 206 202 207 222 245 259 266 270 268 266 279 275 275 269 270 266 261 260 263 262 271
284 280 274 270 276 274 272 266 275 277 277 282 289 293 296 303 311 309 296 288 284 283 287 294 296 293 310 290 289 286 292 295 286 285 279 271 263 253 251 262 257 221 193 209 202 220 263 262 265 282 274 266 275 261 256 266 269 253 259 272 279 278
286 279 269 268 270 272 273 277 273 273 275 281 284 288 298 304 302 299 294 289 294 293 293 296 304 313 297 289 273 296 302 283 284 283 277 273 266 265 264 268 261 239 230 230 239 210 216 252 242 266 271 263 258 266 273 262 252 260 267 268 272 272
285 274 268 269 267 263 265 269 271 272 278 282 284 290 295 295 290 289 287 291 287 285 287 292 291 299 297 281 290 290 296 289 284 284 280 267 262 247 261 280 256 246 262 262 227 240 250 221 277 265 262 264 264 263 256 252 270 265 264 270 275 284
281 274 267 265 260 256 260 268 266 265 275 282 286 288 291 285 280 278 280 283 288 291 300 299 303 292 264 287 300 297 289 290 300 300 293 276 268 269 275 270 274 280 277 262 260 246 238 239 254 273 270 266 266 267 262 269 270 273 268 269 276 279
279 272 266 261 255 253 259 263 258 266 279 284 286 288 285 285 277 273 276 278 286 289 292 287 284 280 293 266 262 288 291 295 305 303 299 290 284 287 281 288 289 277 259 262 250 249 260 272 269 249 275 271 270 263 263 262 265 268 274 275 275 280
265 263 257 251 251 251 258 256 259 268 277 276 282 284 282 275 269 273 270 276 279 278 285 289 287 285 281 268 264 271 266 277 284 297 299 300 308 291 294 291 288 284 262 255 255 239 298 306 287 277 267 272 265 266 264 272 282 279 279 275 274 275
267 256 256 268 259 257 254 256 260 268 274 276 283 282 279 275 274 265 268 278 282 278 284 285 285 286 278 275 268 261 266 280 290 285 288 287 289 291 285 289 285 265 257 256 252 269 308 268 277 278 271 274 264 250 262 263 260 272 275 281 275 275
264 269 268 260 255 249 249 253 260 267 271 281 283 286 283 279 270 268 267 269 273 279 279 277 275 276 273 267 265 266 268 272 277 281 287 289 294 294 291 291 290 288 277 266 262 277 235 271 275 278 279 273 259 261 247 246 244 249 268 275 273 265
266 275 264 254 253 251 245 255 260 263 273 277 277 277 278 270 272 271 266 269 269 270 271 267 268 267 268 272 268 268 271 274 279 286 288 293 301 297 299 306 317 304 298 295 286 274 293 278 275 276 272 266 281 280 262 271 280 272 265 265 260 264
271 263 252 227 249 250 244 246 251 261 265 270 272 266 266 270 265 270 274 270 268 262 260 265 264 262 259 265 269 269 272 272 273 279 289 294 299 297 297 307 321 309 303 292 284 302 294 277 262 265 270 276 298 282 294 294 283 277 273 274 270 254
265 263 259 226 237 249 247 249 252 260 261 266 272 275 274 273 274 274 276 276 267 255 252 246 248 258 260 258 259 264 267 275 277 279 282 293 292 299 302 324 315 308 305 305 316 295 290 280 282 269 273 276 287 288 287 296 295 278 276 278 281 283
260 262 255 232 237 248 249 250 262 266 273 274 275 277 275 275 nan 286 278 nan 270 255 240 236 237 243 251 261 265 267 nan 278 286 284 280 280 282 288 301 315 311 311 310 310 280 288 282 275 267 275 281 284 281 285 302 294 291 289 279 291 291 278
254 249 243 224 222 247 248 255 265 267 270 269 271 270 271 275 274 nan nan 276 264 250 246 242 238 245 250 nan 259 261 265 266 272 281 282 283 282 285 286 294 294 296 292 287 284 278 277 279 279 285 285 288 291 283 290 296 289 290 287 283 280 274
243 241 238 219 206 253 263 270 274 270 267 265 267 270 273 272 271 nan 278 nan 267 256 253 251 248 250 262 268 265 268 268 267 275 279 nan 279 283 284 277 279 284 284 283 285 283 272 266 277 294 290 295 293 281 293 293 286 292 290 290 293 292 nan
242 236 222 225 244 285 282 283 280 271 270 262 268 270 270 nan nan 275 279 275 267 259 257 255 253 257 261 270 276 271 267 263 259 266 nan 278 279 281 282 280 278 283 284 282 282 297 306 294 280 274 295 299 299 296 291 287 286 287 288 292 nan nan
242 233 228 209 244 285 281 283 277 274 271 270 272 272 nan nan 272 273 270 269 269 269 271 269 267 269 274 280 277 282 277 270 267 262 263 270 279 281 282 279 275 270 268 271 272 278 280 286 282 293 287 284 296 295 291 289 290 291 280 280 285 nan
297 288 284 283 261 227 287 286 276 274 273 274 276 276 277 280 nan nan 275 278 280 280 281 277 278 278 273 273 274 274 278 277 272 267 270 278 279 281 282 280 277 273 269 266 269 269 273 277 284 282 277 282 282 279 277 288 278 283 287 277 283 nan
287 279 279 281 287 290 290 288 279 278 276 273 275 278 282 285 287 285 284 286 285 287 286 288 289 285 281 277 277 277 276 275 273 275 277 nan nan 286 282 280 278 276 272 270 271 271 269 273 274 278 277 281 283 280 286 284 290 287 286 290 280 nan
288 288 280 285 282 280 274 274 274 277 275 273 275 281 286 287 290 290 291 292 nan nan nan 297 294 290 287 nan nan nan 277 274 nan nan nan nan nan nan 280 280 280 277 275 272 270 271 270 268 266 275 281 284 287 288 290 293 287 285 284 291 292 nan
278 279 283 287 290 285 278 269 271 271 271 273 274 280 nan 288 nan nan nan nan nan nan 299 296 294 292 nan nan 285 276 271 nan nan nan nan 273 nan nan nan nan nan nan 276 273 272 271 271 269 270 273 nan nan nan nan nan nan nan nan nan nan nan nan
272 280 284 288 290 289 279 273 270 268 268 271 274 277 nan 282 284 nan nan nan nan nan 299 298 295 nan nan nan nan nan nan nan nan nan nan nan nan nan nan nan nan nan nan nan nan 269 268 269 269 nan nan nan nan nan nan nan nan nan nan nan nan nan
276 285 290 290 287 285 276 266 271 275 272 271 272 273 274 278 281 285 nan nan nan nan 300 299 nan nan nan nan nan nan nan nan nan nan nan nan nan nan nan nan nan nan nan nan nan nan nan nan nan nan nan nan nan nan nan nan nan nan nan nan nan nan
275 279 290 291 284 282 269 257 264 275 271 269 270 272 272 276 280 285 287 nan nan nan 294 nan nan nan nan nan nan nan nan nan nan nan nan nan nan nan nan nan nan nan nan nan nan nan nan nan nan nan nan nan nan nan nan nan nan nan nan nan nan nan